• In Moldova, Republic
  • List of Countries
  • For 7 days
  • Water Temperature
  • Satellite Maps
  • Weather Map
  • Weather Widgets
  • user-avatar
    Login

    Hourly Weather Satif

    Today, 28 May, Sunday

    Time Temperature Precipitation Wind Pressure Humidity
    00:00 +18°C° 0 mm 1 mps 672 mmHg 72%
    01:00 +16°C° 0.2 mm 1 mps 672 mmHg 73%
    02:00 +16°C° 0.2 mm 1 mps 672 mmHg 73%
    03:00 +16°C° 0.2 mm 1 mps 672 mmHg 74%
    04:00 +18°C° 0.1 mm 1 mps 672 mmHg 70%
    05:00 +19°C° 0.1 mm 1 mps 673 mmHg 65%
    06:00 +21°C° 0 mm 1 mps 674 mmHg 57%
    07:00 +24°C° 0 mm 1 mps 674 mmHg 50%
    08:00 +26°C° 0 mm 1 mps 675 mmHg 43%
    09:00 +28°C° 0 mm 1 mps 675 mmHg 36%
    10:00 +30°C° 0 mm 1 mps 676 mmHg 33%
    11:00 +31°C° 0 mm 2 mps 676 mmHg 30%
    12:00 +32°C° 0 mm 2 mps 676 mmHg 27%
    13:00 +32°C° 0 mm 2 mps 675 mmHg 28%
    14:00 +31°C° 0 mm 2 mps 675 mmHg 29%
    15:00 +31°C° 0 mm 2 mps 674 mmHg 29%
    16:00 +29°C° 0 mm 2 mps 674 mmHg 36%
    17:00 +27°C° 0 mm 2 mps 673 mmHg 42%
    18:00 +25°C° 0 mm 1 mps 673 mmHg 48%
    19:00 +24°C° 0.3 mm 1 mps 673 mmHg 52%
    20:00 +22°C° 0.3 mm 1 mps 673 mmHg 56%
    21:00 +19°C° 0.3 mm 2 mps 672 mmHg 61%
    22:00 +19°C° 0 mm 2 mps 672 mmHg 61%
    23:00 +19°C° 0 mm 2 mps 672 mmHg 61%

    Tomorrow, 29 May, Monday

    Time Temperature Precipitation Wind Pressure Humidity
    00:00 +18°C° 0 mm 2 mps 672 mmHg 61%
    01:00 +18°C° 0 mm 2 mps 671 mmHg 62%
    02:00 +17°C° 0 mm 2 mps 671 mmHg 62%
    03:00 +17°C° 0 mm 2 mps 671 mmHg 63%
    04:00 +18°C° 0 mm 2 mps 671 mmHg 61%
    05:00 +18°C° 0 mm 2 mps 671 mmHg 60%
    06:00 +19°C° 0 mm 2 mps 671 mmHg 58%
    07:00 +21°C° 0 mm 2 mps 672 mmHg 51%
    08:00 +25°C° 0 mm 2 mps 673 mmHg 44%
    09:00 +27°C° 0 mm 2 mps 674 mmHg 36%
    10:00 +28°C° 0 mm 3 mps 674 mmHg 36%
    11:00 +28°C° 0 mm 3 mps 674 mmHg 35%
    12:00 +29°C° 0 mm 3 mps 674 mmHg 34%
    13:00 +28°C° 0 mm 3 mps 673 mmHg 37%
    14:00 +28°C° 0 mm 2 mps 673 mmHg 39%
    15:00 +27°C° 0 mm 2 mps 673 mmHg 42%
    16:00 +26°C° 0.1 mm 2 mps 672 mmHg 49%
    17:00 +24°C° 0.1 mm 2 mps 672 mmHg 55%
    18:00 +23°C° 0.1 mm 1 mps 672 mmHg 62%
    19:00 +22°C° 0 mm 1 mps 672 mmHg 66%
    20:00 +21°C° 0 mm 1 mps 672 mmHg 71%
    21:00 +19°C° 0 mm 1 mps 672 mmHg 75%
    22:00 +19°C° 0.3 mm 1 mps 672 mmHg 76%
    23:00 +18°C° 0.3 mm 1 mps 672 mmHg 76%

    Day after tomorrow, 30 May, Tuesday

    Time Temperature Precipitation Wind Pressure Humidity
    00:00 +18°C° 0.3 mm 1 mps 671 mmHg 77%
    01:00 +18°C° 0.1 mm 1 mps 671 mmHg 76%
    02:00 +18°C° 0.1 mm 1 mps 671 mmHg 75%
    03:00 +16°C° 0.1 mm 1 mps 671 mmHg 74%
    04:00 +18°C° 0.2 mm 1 mps 672 mmHg 73%
    05:00 +18°C° 0.2 mm 1 mps 672 mmHg 72%
    06:00 +18°C° 0.2 mm 1 mps 672 mmHg 71%
    07:00 +19°C° 0.2 mm 1 mps 673 mmHg 68%
    08:00 +20°C° 0.2 mm 1 mps 673 mmHg 65%
    09:00 +20°C° 0.2 mm 1 mps 674 mmHg 63%
    10:00 +20°C° 0.5 mm 1 mps 674 mmHg 63%
    11:00 +20°C° 0.5 mm 1 mps 674 mmHg 64%
    12:00 +21°C° 0.5 mm 1 mps 674 mmHg 64%
    13:00 +20°C° 1.2 mm 1 mps 674 mmHg 69%
    14:00 +20°C° 1.2 mm 1 mps 674 mmHg 73%
    15:00 +18°C° 1.2 mm 2 mps 673 mmHg 77%
    16:00 +18°C° 0.5 mm 2 mps 673 mmHg 78%
    17:00 +19°C° 0.5 mm 1 mps 673 mmHg 80%
    18:00 +18°C° 0.5 mm 1 mps 673 mmHg 82%
    19:00 +18°C° 0.1 mm 1 mps 673 mmHg 83%
    20:00 +16°C° 0.1 mm 1 mps 673 mmHg 85%
    21:00 +15°C° 0.1 mm 1 mps 673 mmHg 87%
    22:00 +15°C° 0 mm 1 mps 673 mmHg 87%
    23:00 +15°C° 0 mm 1 mps 673 mmHg 88%

    31 May, Wednesday

    Time Temperature Precipitation Wind Pressure Humidity
    00:00 +14°C° 0 mm 1 mps 673 mmHg 89%
    01:00 +14°C° 0 mm 1 mps 672 mmHg 88%
    02:00 +14°C° 0 mm 1 mps 672 mmHg 88%
    03:00 +14°C° 0 mm 1 mps 672 mmHg 87%
    04:00 +15°C° 0.1 mm 1 mps 673 mmHg 82%
    05:00 +16°C° 0.1 mm 1 mps 673 mmHg 78%
    06:00 +18°C° 0.1 mm 1 mps 674 mmHg 73%
    07:00 +20°C° 0 mm 1 mps 674 mmHg 64%
    08:00 +21°C° 0 mm 0 mps 675 mmHg 54%
    09:00 +23°C° 0 mm 0 mps 676 mmHg 45%
    10:00 +26°C° 0 mm 1 mps 676 mmHg 41%
    11:00 +27°C° 0 mm 1 mps 676 mmHg 37%
    12:00 +28°C° 0 mm 1 mps 676 mmHg 34%
    13:00 +28°C° 0 mm 1 mps 676 mmHg 35%
    14:00 +28°C° 0 mm 2 mps 675 mmHg 36%
    15:00 +27°C° 0 mm 2 mps 675 mmHg 36%
    16:00 +26°C° 0.2 mm 2 mps 675 mmHg 44%
    17:00 +24°C° 0.2 mm 1 mps 674 mmHg 52%
    18:00 +23°C° 0.2 mm 1 mps 674 mmHg 60%
    19:00 +21°C° 0 mm 1 mps 674 mmHg 65%
    20:00 +20°C° 0 mm 1 mps 674 mmHg 69%
    21:00 +19°C° 0 mm 1 mps 674 mmHg 74%
    22:00 +19°C° 0 mm 1 mps 674 mmHg 76%
    23:00 +18°C° 0 mm 1 mps 673 mmHg 78%

    1 June, Thursday

    Time Temperature Precipitation Wind Pressure Humidity
    00:00 +18°C° 0 mm 1 mps 673 mmHg 80%
    01:00 +16°C° 0 mm 1 mps 673 mmHg 82%
    02:00 +16°C° 0 mm 1 mps 672 mmHg 83%
    03:00 +16°C° 0 mm 1 mps 672 mmHg 85%
    04:00 +18°C° 0 mm 1 mps 673 mmHg 78%
    05:00 +17°C° 0 mm 0 mps 673 mmHg 71%
    06:00 +19°C° 0 mm 0 mps 674 mmHg 65%
    07:00 +21°C° 0 mm 0 mps 675 mmHg 55%
    08:00 +25°C° 0 mm 1 mps 675 mmHg 45%
    09:00 +28°C° 0 mm 1 mps 676 mmHg 35%
    10:00 +29°C° 0 mm 1 mps 676 mmHg 32%
    11:00 +30°C° 0 mm 2 mps 676 mmHg 29%
    12:00 +31°C° 0 mm 2 mps 676 mmHg 27%
    13:00 +30°C° 0 mm 2 mps 675 mmHg 29%
    14:00 +30°C° 0 mm 2 mps 675 mmHg 31%
    15:00 +29°C° 0 mm 2 mps 675 mmHg 33%
    16:00 +28°C° 0 mm 2 mps 674 mmHg 40%
    17:00 +26°C° 0 mm 2 mps 674 mmHg 47%
    18:00 +25°C° 0 mm 1 mps 674 mmHg 54%
    19:00 +23°C° 0.1 mm 1 mps 674 mmHg 60%
    20:00 +22°C° 0.1 mm 1 mps 674 mmHg 65%
    21:00 +20°C° 0.1 mm 1 mps 674 mmHg 71%
    22:00 +19°C° 0.1 mm 1 mps 673 mmHg 73%
    23:00 +19°C° 0.1 mm 1 mps 673 mmHg 74%

    2 June, Friday

    Time Temperature Precipitation Wind Pressure Humidity
    00:00 +18°C° 0.1 mm 1 mps 672 mmHg 75%
    01:00 +18°C° 0 mm 1 mps 672 mmHg 76%
    02:00 +18°C° 0 mm 1 mps 672 mmHg 77%
    03:00 +16°C° 0 mm 1 mps 671 mmHg 78%
    04:00 +19°C° 0 mm 1 mps 672 mmHg 71%
    05:00 +20°C° 0 mm 1 mps 673 mmHg 64%
    06:00 +22°C° 0 mm 1 mps 673 mmHg 57%
    07:00 +24°C° 0 mm 1 mps 674 mmHg 49%
    08:00 +27°C° 0 mm 1 mps 674 mmHg 41%
    09:00 +29°C° 0 mm 2 mps 675 mmHg 32%
    10:00 +30°C° 0 mm 2 mps 675 mmHg 31%
    11:00 +31°C° 0 mm 2 mps 675 mmHg 29%
    12:00 +31°C° 0 mm 2 mps 675 mmHg 28%
    13:00 +31°C° 0 mm 2 mps 674 mmHg 30%
    14:00 +30°C° 0 mm 2 mps 674 mmHg 33%
    15:00 +29°C° 0 mm 2 mps 674 mmHg 36%
    16:00 +28°C° 0 mm 2 mps 673 mmHg 42%
    17:00 +26°C° 0 mm 1 mps 673 mmHg 47%
    18:00 +25°C° 0 mm 1 mps 673 mmHg 53%
    19:00 +24°C° 0.1 mm 1 mps 673 mmHg 59%
    20:00 +22°C° 0.1 mm 1 mps 673 mmHg 65%
    21:00 +20°C° 0.1 mm 1 mps 673 mmHg 71%
    22:00 +20°C° 0.1 mm 1 mps 672 mmHg 72%
    23:00 +20°C° 0.1 mm 1 mps 672 mmHg 73%
    Show more